This is the latest recevied weather packets stored in our database for station/object PY3MO-13. If no packets are shown the sender has not sent any weather packets the latest 1 day(s).
| Time | Temp. | Humidity | Pressure | Rain* | Wind** | Luminosity | Snow |
|---|---|---|---|---|---|---|---|
| 1778065330 | 20° C | 81% | 1020.5 hPa | 0 mm | - | - | - |
| 1778064729 | 20° C | 82% | 1020.2 hPa | 0 mm | - | - | - |
| 1778063531 | 18.89° C | 85% | 1020 hPa | 0 mm | - | - | - |
| 1778062930 | 18.89° C | 86% | 1019.8 hPa | 0 mm | - | - | - |
| 1778062331 | 18.33° C | 88% | 1019.9 hPa | 0 mm | - | - | - |
| 1778061730 | 18.33° C | 88% | 1019.7 hPa | 0 mm | - | - | - |
| 1778060831 | 18.33° C | 88% | 1019.7 hPa | 0 mm | - | - | - |
| 1778060529 | 18.33° C | 88% | 1019.7 hPa | 0 mm | - | - | - |
| 1778059630 | 18.33° C | 87% | 1019.6 hPa | 0 mm | - | - | - |
| 1778059029 | 18.33° C | 86% | 1019.3 hPa | 0 mm | - | - | - |
| 1778058729 | 18.33° C | 86% | 1019.6 hPa | 0 mm | - | - | - |
| 1778058431 | 18.33° C | 85% | 1019.2 hPa | 0 mm | - | - | - |
| 1778057830 | 18.33° C | 84% | 1019.3 hPa | 0 mm | - | - | - |
| 1778056630 | 18.89° C | 82% | 1019.1 hPa | 0 mm | - | - | - |
| 1778056029 | 18.89° C | 82% | 1019 hPa | 0 mm | - | - | - |
| 1778054830 | 18.89° C | 84% | 1019.4 hPa | 0 mm | - | - | - |
| 1778054530 | 18.89° C | 86% | 1019.6 hPa | 0 mm | - | - | - |
| 1778052730 | 17.78° C | 92% | 1019.6 hPa | 0 mm | - | - | - |
| 1778052129 | 17.78° C | 92% | 1019.6 hPa | 0 mm | - | - | - |
| 1778051831 | 17.22° C | 95% | 1019.4 hPa | 0 mm | - | - | - |
| 1778051530 | 17.22° C | 95% | 1019.2 hPa | 0 mm | - | - | - |
| 1778050631 | 17.22° C | 93% | 1019.2 hPa | 0 mm | - | - | - |
| 1778050030 | 17.22° C | 92% | 1019.4 hPa | 0 mm | - | - | - |
| 1778049130 | 17.78° C | 88% | 1019.7 hPa | 0 mm | - | - | - |
| 1778048529 | 17.78° C | 87% | 1019.7 hPa | 0 mm | - | - | - |
* Rain latest hour (hover to see other rain measurements)
** Current wind speed in m/s (hover to see current wind gust speed)